TimeMDT,TemperatureF,Dew PointF,Humidity,Sea Level PressureIn,VisibilityMPH,Wind Direction,Wind SpeedMPH,Gust SpeedMPH,PrecipitationIn,Events,Conditions,WindDirDegrees,DateUTC
12:56 AM,71.1,62.1,73,29.93,-9999.0,SE,6.9,-,N/A,,Unknown,130,2013-08-19 06:56:00
1:56 AM,70.0,61.0,73,29.89,-9999.0,SSW,9.2,-,N/A,,Unknown,200,2013-08-19 07:56:00
2:56 AM,68.0,61.0,78,29.88,-9999.0,SW,6.9,-,N/A,,Unknown,220,2013-08-19 08:56:00
3:56 AM,66.0,61.0,84,29.86,-9999.0,WSW,4.6,-,N/A,,Unknown,240,2013-08-19 09:56:00
4:56 AM,64.0,60.1,87,29.86,-9999.0,WSW,8.1,-,N/A,,Unknown,240,2013-08-19 10:56:00
5:56 AM,63.0,60.1,90,29.89,-9999.0,Calm,Calm,-,N/A,,Unknown,0,2013-08-19 11:56:00
6:56 AM,64.0,57.0,78,29.91,-9999.0,NW,4.6,-,N/A,,Unknown,320,2013-08-19 12:56:00
7:56 AM,73.9,55.9,53,29.91,-9999.0,NNW,9.2,-,N/A,,Unknown,340,2013-08-19 13:56:00
8:56 AM,75.9,55.9,50,29.91,-9999.0,North,9.2,-,N/A,,Unknown,350,2013-08-19 14:56:00
9:56 AM,80.1,55.9,43,29.91,-9999.0,North,11.5,-,N/A,,Unknown,350,2013-08-19 15:56:00
10:56 AM,87.1,55.0,33,29.90,-9999.0,North,8.1,-,N/A,,Unknown,360,2013-08-19 16:56:00
11:56 AM,91.0,53.1,27,29.88,-9999.0,Variable,5.8,-,N/A,,Unknown,0,2013-08-19 17:56:00
12:56 PM,91.0,55.0,29,29.88,-9999.0,SE,10.4,-,N/A,,Unknown,140,2013-08-19 18:56:00
1:56 PM,90.0,60.1,37,29.88,-9999.0,ESE,11.5,17.3,N/A,,Unknown,120,2013-08-19 19:56:00
2:56 PM,90.0,59.0,35,29.88,-9999.0,SE,8.1,19.6,N/A,,Unknown,140,2013-08-19 20:56:00
3:56 PM,89.1,59.0,36,29.87,-9999.0,SSE,10.4,-,N/A,,Unknown,160,2013-08-19 21:56:00
4:56 PM,87.1,59.0,39,29.87,-9999.0,SSE,10.4,-,N/A,,Unknown,150,2013-08-19 22:56:00
5:56 PM,86.0,59.0,40,29.88,-9999.0,SE,12.7,-,N/A,,Unknown,140,2013-08-19 23:56:00
6:56 PM,82.0,61.0,49,29.88,-9999.0,SSE,6.9,-,N/A,,Unknown,150,2013-08-20 00:56:00
7:56 PM,73.9,62.1,66,29.88,-9999.0,SSE,8.1,-,N/A,,Unknown,150,2013-08-20 01:56:00
8:56 PM,71.1,61.0,70,29.90,-9999.0,South,4.6,-,N/A,,Unknown,170,2013-08-20 02:56:00
9:56 PM,70.0,61.0,73,29.91,-9999.0,South,4.6,-,N/A,,Unknown,180,2013-08-20 03:56:00
10:56 PM,69.1,61.0,75,29.90,-9999.0,South,9.2,-,N/A,,Unknown,190,2013-08-20 04:56:00
11:56 PM,66.9,60.1,79,29.89,-9999.0,SSW,4.6,-,N/A,,Unknown,200,2013-08-20 05:56:00